User: anonymous   Login
Location: Durham
(54.7770°N, 1.5720°W)
Time: 16:16:10
(UTC+01:00)
Language:

ISS - Orbit

View from above orbital plane
View from above orbital plane
View from above satellite
View from above satellite

Ground track
Ground track

The orbit data is extracted from the following two-line orbital elements,

1 25544U 98067A   16273.72863561  .00016717  00000-0  10270-3 0  9026
2 25544  51.6421 256.5574 0006946  17.5352 342.6039 15.54008315 21241
Epoch (UTC): 29 September 2016 17:29:14
Eccentricity: 0.0006946
inclination: 51.6421°
perigee height: 400 km
apogee height: 410 km
right ascension of ascending node: 256.5574°
argument of perigee: 17.5352°
revolutions per day: 15.54008315
mean anomaly at epoch: 342.6039°
orbit number at epoch: 2124

The dashed part of the orbit path shows where the satellite is in the earth's shadow,  

DLR